Regional Weather Roundup
Issued by NWS

Home | Current Version | Previous Version | Graphics & Text | Print | Product List | Glossary On
Versions: 1 2 3 4 5 6 7 8 9 10 11 12 13 14 15 16 17 18 19 20 21 22 23 24 25 26 27 28
000
ASUS45 KBOU 311007
RWRCO

WEATHER ROUNDUP FOR COLORADO
NATIONAL WEATHER SERVICE DENVER/BOULDER CO
400 AM MDT FRI OCT 31 2014

NOTE: "FAIR" INDICATES FEW OR NO CLOUDS BELOW 12000 FEET WITH NO
SIGNIFICANT WEATHER AND/OR OBSTRUCTIONS TO VISIBILITY.

COZ001>005-013-030-031-311100-
...NORTHWEST COLORADO...

CITY           SKY/WX    TMP DP  RH WIND       PRES   REMARKS
CRAIG          CLEAR     28  23  81 W3        30.26S
HAYDEN         CLEAR     36  25  64 E14       30.26F
MEEKER         PTCLDY    33  25  72 CALM      30.27S
MOUNT WERNER   NOT AVBL
STEAMBOAT SPGS CLEAR     32  26  78 CALM      30.30S
WALDEN         PTCLDY    25  21  86 SE6       30.33F WCI  18
$$

COZ006>008-011-311100-
...WEST CENTRAL VALLEYS...

CITY           SKY/WX    TMP DP  RH WIND       PRES   REMARKS
GRAND JUNCTION PTCLDY    41  26  55 NE7       30.20S
MONTROSE       PTCLDY    35  24  64 SE8       30.28S WCI  29
EAGLE          CLEAR     27  25  93 E6        30.36F WCI  20
RIFLE          CLEAR     34  25  69 SE7       30.26S WCI  28
DELTA          PTCLDY    37  25  60 CALM      30.26S
NUCLA          PTCLDY    41  21  45 SE5       30.29S
$$

COZ017>023-064>068-311100-
...SOUTHWEST COLORADO...

CITY           SKY/WX    TMP DP  RH WIND       PRES   REMARKS
DURANGO        CLEAR     30  24  78 CALM      30.36S
CORTEZ         CLEAR     32  23  69 E5        30.28S WCI  27
PAGOSA SPRINGS CLEAR     32  21  62 CALM      30.41R
TELLURIDE      PTCLDY    47  12  25 E7        30.41F
WOLF CREEK PAS CLEAR     32  12  43 SW17      30.55F WCI  21
$$

COZ009-010-012-014-032>034-037-058>063-311100-
...CENTRAL COLORADO...

CITY           SKY/WX    TMP DP  RH WIND       PRES   REMARKS
ASPEN          CLEAR     27  19  72 CALM      30.33S
BUENA VISTA    CLEAR     26  19  75 W3        30.45S
COPPER MTN     PTCLDY    41  -8  12 S20       30.51F
BERTHOUD PASS  FAIR      34  32  93 W16G22    30.52F WCI  23
COTTONWOOD PAS CLEAR     36  21  55 CALM      30.47F
GUNNISON       PTCLDY    23  12  63 CALM      30.42S
KREMMLING      PTCLDY    25  21  86 CALM      30.38F
LEADVILLE      CLEAR     26  17  68 NE5       30.45F WCI  20
MONARCH PASS   CLEAR     34  12  40 SW13      30.64S WCI  25
SALIDA         CLEAR     31  22  68 W3        30.52S
SUNLIGHT       CLEAR     41  18  38 CALM      30.46F
WILKERSON PASS NOT AVBL
$$

COZ069>075-311100-
...SAN LUIS VALLEY/SANGRE DE CRISTO MOUNTAINS...

CITY           SKY/WX    TMP DP  RH WIND       PRES   REMARKS
ALAMOSA        PTCLDY    22  14  71 CALM      30.39S
LA VETA PASS   PTCLDY    34  21  60 SW9       30.47F WCI  26
SAGUACHE       PTCLDY    32  16  51 NW10      30.41F WCI  24
$$

COZ035-036-038>040-311100-
...NORTHERN COLORADO FRONT RANGE...

CITY           SKY/WX    TMP DP  RH WIND       PRES   REMARKS
DENVER INTL AP CLEAR     35  26  69 S8        30.34F WCI  29
DMNS CITY PARK   N/A     36  28  73 S5        30.34F
AURORA         CLEAR     42  25  50 S12       30.35F
FRONT RANGE AP CLEAR     43  28  56 S18       30.36F
ERIE MUNI ARPT CLEAR     30  27  89 CALM      30.35F
BOULDER MUN AP CLEAR     39  28  65 CALM      30.35F
CENTENNIAL     CLEAR     41  25  53 S9        30.34F
BROOMFIELD     CLEAR     37  28  70 NW10      30.34F
FORT COLLINS   CLEAR     34  25  69 N7        30.38F WCI  28
LONGMONT       CLEAR     38  29  70 N8        30.37F
$$

COZ041-046-047-076>085-087-088-311100-
...PIKES PEAK/PALMER DIVIDE AND SOUTHERN FOOTHILLS...

CITY           SKY/WX    TMP DP  RH WIND       PRES   REMARKS
COLO. SPRINGS  PTCLDY    37  24  59 E10       30.42F
A. F. ACADEMY  PTCLDY    35  23  60 S7        30.41F WCI  30
ELLICOTT       PTCLDY    35  25  66 SE12      30.41F WCI  27
FALCON         PTCLDY    32  23  69 SE6       30.43F WCI  26
FORT CARSON    PTCLDY    36  24  59 SE9       30.41F
LIMON          PTCLDY    24  21  88 S3        30.42F
MONUMENT HILL  PTCLDY    34  23  64 S15G23    30.37F WCI  24
TRINIDAD       PTCLDY    36  22  56 W6        30.40F
$$

COZ042>045-048>051-090-091-311100-
...NORTHEAST COLORADO...

CITY           SKY/WX    TMP DP  RH WIND       PRES   REMARKS
GREELEY ARPT   CLEAR     36  25  64 E10       30.38F
AKRON          CLEAR     30  28  92 SE12      30.41F WCI  20
BURLINGTON     PTCLDY    30  26  85 SE5       30.45S WCI  25
WRAY           PTCLDY    31  29  91 CALM      30.46S
STERLING       NOT AVBL
HOLYOKE        PTCLDY    28  25  86 CALM      30.46F
FORT MORGAN    CLEAR     30  27  88 E8        30.41F WCI  22
$$

COZ086-089-092>099-311100-
...SOUTHEAST COLORADO...

CITY           SKY/WX    TMP DP  RH WIND       PRES   REMARKS
PUEBLO         PTCLDY    35  24  64 CALM      30.40F
LA JUNTA       CLEAR     36  26  67 E7        30.42S
LAMAR          CLEAR     31  25  78 CALM      30.42S
SPRINGFIELD      N/A     35  27  72 CALM      30.43S
$$



USA.gov is the U.S. government's official web portal to all federal, state and local government web resources and services.